Kirksville, MO

3:56 AM CST on February 20, 2018 (GMT -0600)
Kirksville Regional

Weather History for KIRK - June, 2013

Change the Weather History Date:

Monday, June 17, 2013

  Actual Average Record
Temperature  
Mean Temperature 72 °F 71 °F  
Max Temperature 83 °F 82 °F 97 °F (1936)
Min Temperature 60 °F 61 °F 43 °F (1961)
Degree Days  
Heating Degree Days 0 0  
Month to date heating degree days 36 12  
Since 1 June heating degree days 36 12  
Since 1 July heating degree days 6071 5852  
Cooling Degree Days 7 7  
Month to date cooling degree days 65 89  
Year to date cooling degree days 133 151  
Since 1 June cooling degree days 65 89  
Growing Degree Days 21 (Base 50)    
Moisture  
Dew Point 64 °F    
Average Humidity 81    
Maximum Humidity 100    
Minimum Humidity 62    
Precipitation  
Precipitation 0.00 in 0.16 in 3.10 in (1928)
Month to date precipitation 1.72 3.06  
Year to date precipitation 26.19 17.21  
Sea Level Pressure  
Sea Level Pressure 29.96 in    
Wind  
Wind Speed 2 mph (NE)    
Max Wind Speed 9 mph    
Max Gust Speed 13 mph    
Visibility 4 miles    
Events Fog    
T = Trace of Precipitation, MM = Missing Value Source: NWS Daily Summary

Daily Weather History Graph

Daily Weather History Graph

Search for Another Location

Airport or City:

Trip Planner

Search our weather history database for the weather conditions in past years. The results will help you decide how hot, cold, wet, or windy it might be!

Date:

Astronomy

Jun. 17, 2013 Rise Set
Actual Time 5:40 AM CDT 8:41 PM CDT
Civil Twilight 5:07 AM CDT 9:14 PM CDT
Nautical Twilight 4:25 AM CDT 9:56 PM CDT
Astronomical Twilight 3:37 AM CDT 10:45 PM CDT
Moon 2:20 PM CDT (6/17) 1:16 AM CDT (6/17)
Length of Visible Light 16h 07m
Length of Day
15h 01m
First Quarter, 60% of the Moon is Illuminated
Jun 17
First Quarter
Jun 23
Full
Jun 29
Last Quarter
Jul 8
New
Jul 15
First Quarter

Hourly Weather History & Observations

Time (CDT) Temp. Heat Index Dew Point Humidity Pressure Visibility Wind Dir Wind Speed Gust Speed Precip Events Conditions
12:55 AM 63.0 °F - 63.0 °F 100% 29.97 in 6.0 mi Calm Calm - N/A   Clear
1:09 AM 64.4 °F - 62.6 °F 94% 29.98 in 2.5 mi Calm Calm - N/A   Clear
1:17 AM 64.4 °F - 64.4 °F 100% 29.98 in 9.0 mi SE 3.5 mph - N/A   Clear
1:23 AM 62.6 °F - 62.6 °F 100% 29.98 in 1.8 mi SSE 3.5 mph - N/A   Clear
1:33 AM 62.6 °F - 62.6 °F 100% 29.98 in 3.0 mi SE 3.5 mph - N/A   Clear
1:45 AM 62.6 °F - 60.8 °F 94% 29.98 in 1.5 mi Calm Calm - N/A   Clear
1:49 AM 62.6 °F - 60.8 °F 94% 29.98 in 0.5 mi Calm Calm - N/A Fog Fog
1:55 AM 63.0 °F - 62.1 °F 97% 29.98 in 0.2 mi Calm Calm - N/A Fog Fog
2:20 AM 62.6 °F - 60.8 °F 94% 29.98 in 0.2 mi Calm Calm - N/A Fog Fog
2:39 AM 62.6 °F - 60.8 °F 94% 29.98 in 0.5 mi Calm Calm - N/A Fog Fog
2:55 AM 62.1 °F - 62.1 °F 100% 29.96 in 1.2 mi NNE 4.6 mph - N/A   Clear
2:57 AM 62.6 °F - 62.6 °F 100% 29.96 in 3.0 mi NNE 4.6 mph - N/A   Clear
3:13 AM 62.6 °F - 62.6 °F 100% 29.95 in 1.8 mi North 5.8 mph - N/A   Clear
3:32 AM 62.6 °F - 60.8 °F 94% 29.96 in 2.5 mi South 5.8 mph - N/A   Clear
3:48 AM 62.6 °F - 62.6 °F 100% 29.96 in 1.5 mi South 3.5 mph - N/A   Clear
3:53 AM 62.6 °F - 62.6 °F 100% 29.96 in 0.5 mi Calm Calm - N/A Fog Fog
3:55 AM 61.0 °F - 61.0 °F 100% 29.95 in 0.5 mi Calm Calm - N/A Fog Fog
4:55 AM 61.0 °F - 61.0 °F 100% 29.95 in 0.2 mi Calm Calm - N/A Fog Fog
5:12 AM 62.6 °F - 60.8 °F 94% 29.96 in 1.0 mi NE 3.5 mph - N/A   Mist
5:15 AM 62.6 °F - 60.8 °F 94% 29.96 in 2.0 mi NE 3.5 mph - N/A   Clear
5:22 AM 60.8 °F - 60.8 °F 100% 29.96 in 3.0 mi NE 4.6 mph - N/A   Clear
5:31 AM 62.6 °F - 62.6 °F 100% 29.96 in 1.8 mi Calm Calm - N/A   Clear
5:35 AM 62.6 °F - 62.6 °F 100% 29.95 in 0.5 mi Calm Calm - N/A Fog Fog
5:45 AM 64.4 °F - 62.6 °F 94% 29.95 in 1.0 mi NNE 4.6 mph - N/A   Clear
5:55 AM 64.9 °F - 64.9 °F 100% 29.94 in 2.5 mi NNE 4.6 mph - N/A   Clear
6:02 AM 64.4 °F - 64.4 °F 100% 29.95 in 4.0 mi NE 3.5 mph - N/A   Clear
6:40 AM 64.4 °F - 62.6 °F 94% 29.97 in 1.8 mi Calm Calm - N/A   Clear
6:46 AM 64.4 °F - 64.4 °F 100% 29.97 in 0.5 mi Calm Calm - N/A Fog Fog
6:55 AM 64.9 °F - 64.9 °F 100% 29.96 in 1.0 mi Calm Calm - N/A   Clear
7:03 AM 66.2 °F - 64.4 °F 94% 29.97 in 2.0 mi Calm Calm - N/A   Clear
7:17 AM 66.2 °F - 66.2 °F 100% 29.97 in 4.0 mi Calm Calm - N/A   Clear
7:55 AM 70.0 °F - 69.1 °F 97% 29.96 in 6.0 mi Calm Calm - N/A   Clear
8:55 AM 73.0 °F - 70.0 °F 90% 29.98 in 9.0 mi Calm Calm - N/A   Clear
9:55 AM 75.0 °F - 71.1 °F 87% 29.98 in 10.0 mi ESE 3.5 mph - N/A   Clear
10:55 AM 77.0 °F - 69.1 °F 76% 29.98 in 10.0 mi Calm Calm - N/A   Clear
11:55 AM 79.0 °F - 69.1 °F 72% 30.00 in 10.0 mi Calm Calm - N/A   Clear
12:55 PM 80.1 °F 82.7 °F 68.0 °F 67% 30.00 in 10.0 mi Calm Calm - N/A   Partly Cloudy
1:55 PM 82.0 °F 85.5 °F 69.1 °F 65% 29.99 in 10.0 mi Calm Calm - N/A   Clear
2:55 PM 82.0 °F 84.9 °F 68.0 °F 62% 29.97 in 10.0 mi North 3.5 mph - N/A   Partly Cloudy
3:55 PM 82.0 °F 84.9 °F 68.0 °F 62% 29.95 in 10.0 mi NW 6.9 mph - N/A   Clear
4:55 PM 80.1 °F 82.1 °F 66.0 °F 62% 29.95 in 10.0 mi NW 5.8 mph - N/A   Clear
5:55 PM 80.1 °F 82.7 °F 68.0 °F 67% 29.94 in 10.0 mi Calm Calm - N/A   Clear
6:55 PM 77.0 °F - 69.1 °F 76% 29.94 in 10.0 mi Calm Calm - N/A   Clear
7:55 PM 78.1 °F - 72.0 °F 81% 29.94 in 10.0 mi Calm Calm - N/A   Clear
8:55 PM 70.0 °F - 68.0 °F 93% 29.95 in 10.0 mi Calm Calm - N/A   Clear
9:55 PM 68.0 °F - 66.0 °F 93% 29.95 in 10.0 mi South 3.5 mph - N/A   Clear
10:43 PM 64.4 °F - 64.4 °F 100% 29.96 in 1.8 mi Calm Calm - N/A   Clear
10:52 PM 64.4 °F - 64.4 °F 100% 29.95 in 4.0 mi Calm Calm - N/A   Clear
10:55 PM 64.9 °F - 64.0 °F 97% 29.95 in 6.0 mi Calm Calm - N/A   Clear
11:55 PM 64.0 °F - 63.0 °F 96% 29.96 in 9.0 mi WSW 3.5 mph - N/A   Clear